Location: Clarion
(42.7316°N, 93.7330°W)
Time: 21:16:47
(UTC+00:00)

COSMOS 2406 - Pass Details

Date: 22 April 2026
Orbit: 844 x 860 km, 71.0° (Epoch: 12 May)

Event Time Altitude Azimuth Distance (km) Brightness Sun altitude
Exits shadow 09:02:34 26° 287° (WNW) 1,650 4.4 -22.8°
Maximum altitude 09:03:45 27° 307° (NW) 1,582 4.5 -22.6°
Drops below altitude 10° 09:08:37 10° 5° (N) 2,504 6.3 -22.0°
Sets 09:11:28 0° 17° (NNE) 3,444 7.4 -21.6°
